SL-14 DEB, 45313

Orbit data source: Space-Track

SL-14 DEB, 45313 is space debris in LEO originally from a launch on Thu, 15 Aug 1991 UTC launched from the Plesetsk Missile And Space Complex (PKMTR). Debris objects in space refer to the collection of defunct objects orbiting the Earth. Examples of debris include non-operational satellites, rocket bodies, and fragments generated from explosions, collisions, or faulty payload assembly.

Loading next visibility...
Identifier
45313, 1991-056BB
Orbit
LEO
Country
Flag of CISCIS
Related business
Manufacturer
Unknown
Mission
Spacecraft
Bus & Motor
Unknown
Mass
Unknown
Launch date (UTC)
1991-08-15 (34 years ago)
Launch vehicle
Unknown
Launch site
Plesetsk Missile And Space Complex (PKMTR)
Object type
Payload
Rocket body
Debris
Shape & HBR
Unknown shape, 0.1 m
Radar Cross Section
Small (<0.1 m²)

Expand to show TLE details & history
Last TLE update: 3 days ago

TLE from 3 days ago
0 SL-14 DEB
1 45313U 91056BB  26033.80013035  .00001544  00000-0  25592-2 0  9990
2 45313  82.5787 174.6192 0100307 160.0212 200.4898 13.44159766290534
Epoch: 2026-02-02T19:12Z
TLE epoch observation values (Epoch: 2026-02-02T19:12:11.262Z)
Latitude
Longitude
113.58205°
Altitude
1,166.982 km
Speed
7.236 km/s
True Right ascension
11h 38m 28s
True Declination
0° 00' 00"
Sunlit
Object was in full shadow at epoch
Visualization orbit readout
Latitude
Unknown
Longitude
Unknown
Altitude
Unknown
Speed
Unknown
Apparent Right ascension
Unknown
Apparent Declination
Unknown
Sunlit
N/A
Visualization observer readout
Local Sidereal Time
05:34:54
Azimuth
Unknown
Elevation
Unknown
Doppler factor
Unknown
Orbital elements
Apogee altitude
1,165.95 km
Perigee altitude
1,016.108 km
Semi-major axis
7,469.166 km
Eccentricity
0.01003
Inclination
82.5787°
RAAN
174.6192°
Arg. of periapsis
160.0212°
True anomaly
200.09213°
Mean anomaly
200.4898°
Eccentric anomaly
200.2905°
Mean motion
3.36229 °/min
Orbital period
107.07 mins
BSTAR
0.0025592
Loading maneuver chart data...
Computing Atmospheric mass density...
Loading historical data...
Loading historical data...
Loading historical data...
Loading historical data...
Loading historical data...
Loading historical data...
Loading historical data...

Documentation

Showing up to 5 results
|